DMSP 5D-2 F13 DEB, 40487

Orbit data source: Space-Track

DMSP 5D-2 F13 DEB, 40487 is space debris in SSO originally from a launch on Fri, 24 Mar 1995 UTC launched from the Air Force Western Test Range (AFWTR). Debris objects in space refer to the collection of defunct objects orbiting the Earth. Examples of debris include non-operational satellites, rocket bodies, and fragments generated from explosions, collisions, or faulty payload assembly.

Loading next visibility...
Identifier
40487, 1995-015CA
Orbit
SSO
Country
Flag of USUS
Related business
Manufacturer
Unknown
Mission
Spacecraft
Bus & Motor
Unknown
Mass
Unknown
Launch date (UTC)
1995-03-24 (31 years ago)
Launch vehicle
Unknown
Launch site
Air Force Western Test Range (AFWTR)
Object type
Payload
Rocket body
Debris
Shape & HBR
Unknown shape, 0.1 m
Radar Cross Section
Medium (>0.1 m² and <1 m²)

Expand to show TLE details & history
Last TLE update: 13 hours ago

TLE from 13 hours ago
0 DMSP 5D-2 F13 DEB
1 40487U 95015CA  26258.24852559  .00001917  00000-0  90073-3 0  9996
2 40487  99.0429 266.2006 0050437 243.7698 115.8288 14.20622995591264
Epoch: 2026-09-15T05:57Z
TLE epoch observation values (Epoch: 2026-09-15T05:57:52.610Z)
Latitude
-0.00008°
Longitude
-177.48579°
Altitude
842.127 km
Speed
7.423 km/s
True Right ascension
17h 44m 48s
True Declination
0° 00' 00"
Sunlit
Object was in daylight at epoch
Visualization orbit readout
Latitude
Unknown
Longitude
Unknown
Altitude
Unknown
Speed
Unknown
Apparent Right ascension
Unknown
Apparent Declination
Unknown
Sunlit
N/A
Visualization observer readout
Local Sidereal Time
11:39:46
Azimuth
Unknown
Elevation
Unknown
Doppler factor
Unknown
Orbital elements
Apogee altitude
856.728 km
Perigee altitude
784.113 km
Semi-major axis
7,198.558 km
Eccentricity
0.00504
Inclination
99.0429°
RAAN
266.2006°
Arg. of periapsis
243.7698°
True anomaly
116.34759°
Mean anomaly
115.8288°
Eccentric anomaly
116.08834°
Mean motion
3.55365 °/min
Orbital period
101.3 mins
BSTAR
0.00090073

Documentation

Showing up to 5 results
|